This demonstration page uses our WeatherBlox Daily Observations layout. Learn more.

Left ArrowRight Arrow

Hourly Observations for March 6, 2015

Temp ( °F °C ) Dew Point ( °F °C ) Humidity (%) Winds ( mph kmh ) Pressure ( in mb ) Visibility ( mi km ) Precip ( " mm )
12:15 am 00:15 Clear 19 -7 9 -13 63 63 NNW 6 9 30.50 1033 10 16 N/A
12:35 am 00:35 Clear 19 -7 9 -13 63 63 N 3 6 30.50 1033 10 16 N/A
12:55 am 00:55 Clear 19 -7 7 -14 58 58 NE 7 11 30.53 1034 10 16 N/A
1:15 am 01:15 Clear 18 -8 5 -15 58 58 NE 6 9 30.53 1034 10 16 N/A
1:35 am 01:35 Clear 18 -8 5 -15 58 58 N N/A 30.56 1035 10 16 N/A
1:55 am 01:55 Clear 18 -8 5 -15 58 58 NW 14 22 30.56 1035 10 16 N/A
2:15 am 02:15 Clear 16 -9 5 -15 62 62 NW 18 30 30.56 1035 10 16 N/A
2:35 am 02:35 Clear 16 -9 5 -15 62 62 NW 12 19 30.53 1034 10 16 N/A
2:55 am 02:55 Clear 16 -9 5 -15 62 62 E 5 7 30.56 1035 10 16 N/A
3:15 am 03:15 Clear 16 -9 5 -15 62 62 N N/A 30.56 1035 10 16 N/A
3:35 am 03:35 Clear 16 -9 5 -15 62 62 NNW 16 26 30.56 1035 10 16 N/A
3:55 am 03:55 Clear 14 -10 5 -15 67 67 N 6 9 30.56 1035 10 16 N/A
4:15 am 04:15 Clear 14 -10 5 -15 67 67 N 6 9 30.56 1035 10 16 N/A
4:35 am 04:35 Clear 12 -11 3 -16 67 67 NW 6 9 30.56 1035 10 16 N/A
4:55 am 04:55 Clear 14 -10 3 -16 62 62 NW 9 15 30.56 1035 10 16 N/A
5:15 am 05:15 Clear 12 -11 3 -16 67 67 NNW 7 11 30.59 1036 10 16 N/A
5:35 am 05:35 Clear 10 -12 3 -16 72 72 NNW 8 13 30.59 1036 10 16 N/A
5:55 am 05:55 Clear 12 -11 3 -16 67 67 NNW 10 17 30.59 1036 10 16 N/A
6:15 am 06:15 Clear 12 -11 3 -16 67 67 N 6 9 30.59 1036 10 16 N/A
6:35 am 06:35 Clear 12 -11 3 -16 67 67 N 7 11 30.59 1036 10 16 N/A
6:55 am 06:55 Sunny 10 -12 3 -16 72 72 N 6 9 30.59 1036 10 16 N/A
7:15 am 07:15 Sunny 10 -12 3 -16 72 72 NNW 9 15 30.59 1036 10 16 N/A
7:35 am 07:35 Sunny 12 -11 3 -16 67 67 NNW 3 6 30.62 1037 10 16 N/A
7:55 am 07:55 Sunny 12 -11 3 -16 67 67 N 3 6 30.62 1037 10 16 N/A
8:15 am 08:15 Sunny 14 -10 5 -15 67 67 NNW 7 11 30.65 1038 10 16 N/A
8:35 am 08:35 Sunny 14 -10 5 -15 67 67 N 9 15 30.65 1038 10 16 N/A
8:55 am 08:55 Sunny 16 -9 5 -15 62 62 NNW 9 15 30.65 1038 10 16 N/A
9:15 am 09:15 Sunny 16 -9 5 -15 62 62 NNW 8 13 30.65 1038 10 16 N/A
9:35 am 09:35 Sunny 18 -8 5 -15 58 58 N 7 11 30.65 1038 10 16 N/A
9:55 am 09:55 Sunny 18 -8 5 -15 58 58 NNW 3 6 30.65 1038 10 16 N/A
10:15 am 10:15 Sunny 19 -7 5 -15 53 53 NW 3 6 30.65 1038 10 16 N/A
10:35 am 10:35 Sunny 19 -7 5 -15 53 53 NW 7 11 30.62 1037 10 16 N/A
10:55 am 10:55 Sunny 19 -7 7 -14 58 58 NNW 7 11 30.62 1037 10 16 N/A
11:15 am 11:15 Sunny 21 -6 9 -13 58 58 NW 6 9 30.62 1037 10 16 N/A
11:35 am 11:35 Sunny 21 -6 9 -13 58 58 NW 5 7 30.62 1037 10 16 N/A
11:55 am 11:55 Sunny 21 -6 9 -13 58 58 NW 6 9 30.62 1037 10 16 N/A
12:15 pm 12:15 Sunny 23 -5 7 -14 50 50 NW 3 6 30.59 1036 10 16 N/A
12:35 pm 12:35 Sunny 23 -5 9 -13 54 54 NNW 6 9 30.59 1036 10 16 0.01 0.25
12:55 pm 12:55 Sunny 23 -5 7 -14 50 50 NW 5 7 30.59 1036 10 16 0.01 0.25
1:15 pm 13:15 Sunny 23 -5 9 -13 54 54 NW 5 7 30.56 1035 10 16 N/A
1:35 pm 13:35 Sunny 25 -4 9 -13 50 50 NNW 6 9 30.53 1034 10 16 N/A
1:55 pm 13:55 Sunny 25 -4 7 -14 46 46 N N/A 30.53 1034 10 16 0.03 0.76
2:15 pm 14:15 Sunny 27 -3 7 -14 43 43 N N/A 30.53 1034 10 16 0.03 0.76
2:35 pm 14:35 Sunny 27 -3 7 -14 43 43 N N/A 30.53 1034 10 16 0.03 0.76
2:55 pm 14:55 Sunny 27 -3 9 -13 46 46 N N/A 30.53 1034 10 16 0.05 1.27
3:15 pm 15:15 Sunny 27 -3 9 -13 46 46 N N/A 30.50 1033 10 16 0.01 0.25
3:35 pm 15:35 Sunny 28 -2 9 -13 43 43 N N/A 30.50 1033 10 16 0.02 0.51
3:55 pm 15:55 Sunny 27 -3 9 -13 46 46 N N/A 30.50 1033 10 16 0.03 0.76
4:15 pm 16:15 Sunny 27 -3 9 -13 46 46 N N/A 30.48 1032 10 16 N/A
4:35 pm 16:35 Sunny 27 -3 7 -14 43 43 N N/A 30.48 1032 10 16 N/A
4:55 pm 16:55 Sunny 27 -3 7 -14 43 43 N N/A 30.48 1032 10 16 N/A
5:15 pm 17:15 Sunny 27 -3 9 -13 46 46 N N/A 30.48 1032 10 16 N/A
5:35 pm 17:35 Sunny 27 -3 7 -14 43 43 N N/A 30.48 1032 10 16 N/A
5:55 pm 17:55 Sunny 27 -3 9 -13 46 46 N N/A 30.48 1032 10 16 N/A
6:15 pm 18:15 Clear 27 -3 9 -13 46 46 N N/A 30.48 1032 10 16 N/A
6:35 pm 18:35 Clear 27 -3 10 -12 50 50 N N/A 30.45 1031 10 16 N/A
6:55 pm 18:55 Clear 25 -4 10 -12 54 54 N N/A 30.45 1031 10 16 N/A
7:15 pm 19:15 Clear 23 -5 12 -11 63 63 SSE 5 7 30.48 1032 10 16 N/A
7:35 pm 19:35 Clear 21 -6 12 -11 68 68 S 3 6 30.50 1033 10 16 N/A
7:55 pm 19:55 Clear 21 -6 14 -10 74 74 SSW 3 6 30.50 1033 10 16 N/A
8:15 pm 20:15 Clear 18 -8 14 -10 86 86 N N/A 30.50 1033 10 16 N/A
8:35 pm 20:35 Clear 19 -7 14 -10 79 79 WSW 3 6 30.50 1033 10 16 N/A
8:55 pm 20:55 Clear 18 -8 14 -10 86 86 N N/A 30.48 1032 10 16 N/A
9:15 pm 21:15 Clear 19 -7 12 -11 73 73 SSW 3 6 30.48 1032 10 16 N/A
9:35 pm 21:35 Clear 16 -9 10 -12 79 79 SSW 3 6 30.48 1032 10 16 N/A
9:55 pm 21:55 Clear 14 -10 10 -12 85 85 N N/A 30.48 1032 10 16 N/A
10:15 pm 22:15 Clear 14 -10 12 -11 92 92 S 3 6 30.48 1032 10 16 N/A
10:35 pm 22:35 Clear 12 -11 10 -12 92 92 N N/A 30.48 1032 10 16 N/A
10:55 pm 22:55 Clear 12 -11 9 -13 85 85 SSW 3 6 30.48 1032 10 16 N/A
11:15 pm 23:15 Clear 10 -12 9 -13 92 92 N N/A 30.48 1032 10 16 N/A
11:35 pm 23:35 Clear 10 -12 9 -13 92 92 N N/A 30.45 1031 10 16 N/A
11:55 pm 23:55 Clear 10 -12 9 -13 92 92 SW 3 6 30.45 1031 10 16 N/A

Powered by AerisWeather